User: anonymous   Login
Location: Unspecified
(0.0000°N, 0.0000°E)
Time: 03:35:16
(UTC+00:00)
Language:

ADEOS - Orbit

View from above orbital plane
View from above orbital plane
View from above satellite
View from above satellite

Ground track
Ground track

The orbit data is extracted from the following two-line orbital elements,

1 24277U 96046A   17173.89581091 -.00000023 +00000-0 +87114-5 0  9999
2 24277 098.7219 123.8257 0000909 018.8423 341.2792 14.29384733086817
Epoch (UTC): 22 June 2017 21:29:58
Eccentricity: 0.0000909
inclination: 98.7219°
perigee height: 793 km
apogee height: 794 km
right ascension of ascending node: 123.8257°
argument of perigee: 18.8423°
revolutions per day: 14.29384733
mean anomaly at epoch: 341.2792°
orbit number at epoch: 8681

The dashed part of the orbit path shows where the satellite is in the earth's shadow,  

DLR